Location: Maccacari
(45.1333°N, 11.1333°E)
Time: 13:36:03
(UTC+00:00)

S-56A Canister/Altair - Pass Details

Date: 25 January 2021
Orbit: 631 x 2501 km, 38.9° (Epoch: 01 March)

Event Time Altitude Azimuth Distance (km) Brightness Sun altitude
Rises 00:28:35 0° 214° (SW) 3,261 - -60.9°
Reaches altitude 10° 00:32:00 10° 194° (SSW) 2,147 - -60.6°
Maximum altitude 00:34:56 16° 155° (SSE) 1,671 - -60.3°
Drops below altitude 10° 00:37:42 10° 116° (ESE) 2,005 - -60.1°
Sets 00:40:44 0° 94° (E) 2,938 - -59.8°
